Regional Weather Roundup
Issued by NWS Sioux Falls, SD

Home | Current Version | Previous Version | Text Only | Print | Product List | Glossary Off
Versions: 1 2 3 4 5 6 7 8 9 10 11 12 13 14 15 16 17 18 19 20 21 22 23 24 25 26 27 28 29 30 31 32 33 34 35 36 37 38 39 40 41 42 43 44 45 46 47 48 49 50

000
ASUS43 KFSD 282102
RWRFSD

WEATHER ROUNDUP FOR SE SOUTH DAKOTA/SW MINNESOTA/NW IOWA
NATIONAL WEATHER SERVICE SIOUX FALLS SD
400 PM CDT FRI APR 28 2017

NOTE: "FAIR" INDICATES FEW OR NO CLOUDS BELOW 12,000 FEET WITH NO
SIGNIFICANT WEATHER AND OR OBSTRUCTIONS TO VISIBILITY.


SDZ038>040-050-052>070-282200-
SOUTHEAST SOUTH DAKOTA

CITY           SKY/WX    TMP DP  RH WIND       PRES   REMARKS
BROOKINGS      CLOUDY    49  27  42 NE17G28   29.95S
CHAMBERLAIN    PTSUNNY   54  28  37 NE12G20   29.97S
HURON          PTSUNNY   54  24  31 NE17      29.98R
MADISON        FAIR      46  27  46 E20       29.95S
MITCHELL       CLOUDY    52  28  39 NE13G18   29.97S
SIOUX FALLS    CLOUDY    49  34  56 NE14      29.96R
WINNER         FAIR      53  27  36 NE14G23   29.96F
YANKTON        CLOUDY    46  28  49 NE13      29.94S
$$

MNZ071-072-080-081-089-090-097-098-282200-
SOUTHWEST MINNESOTA

CITY           SKY/WX    TMP DP  RH WIND       PRES   REMARKS
FAIRMONT       CLOUDY    46  33  60 NE15      29.93S
JACKSON        CLOUDY    45  32  61 NE15G21   29.93R
LUVERNE        CLOUDY    45  30  57 NE13G24   29.95R
MARSHALL       CLOUDY    50  30  46 NE17G23   29.95F
MONTEVIDEO     CLOUDY    52  23  32 NE15G21   29.97S
PIPESTONE      CLOUDY    46  27  46 E12G18    29.94R
REDWOOD FALLS  MOSUNNY   50  27  40 N15G23    29.95F
TRACY          CLOUDY    49  33  56 NE14G22   29.95F
WINDOM         CLOUDY    46  30  53 N15G22    29.93F
WORTHINGTON    MOSUNNY   44  30  57 N16G25    29.93R
$$

IAZ001>003-012>014-020>022-031-032-NEZ013-014-SDZ071-282200-
NORTHWEST IOWA

CITY           SKY/WX    TMP DP  RH WIND       PRES   REMARKS
CHEROKEE       CLOUDY    44  34  67 NE8       29.91R
DENISON        MOSUNNY   39  37  93 NE15G22   29.87F
ESTHERVILLE    CLOUDY    45  34  65 NE18      29.91F
LE MARS        CLOUDY    46  32  57 NE10G17   29.94R
ORANGE CITY    CLOUDY    46  34  61 NE9G16    29.92S
SHELDON        CLOUDY    46  32  57 NE15      29.91R
SIOUX CITY     LGT RAIN  45  35  68 NE10      29.91R
SPENCER        CLOUDY    47  34  60 NE16      29.92R
STORM LAKE     CLOUDY    43  36  75 NE18      29.88S
$$

ABBREVIATIONS USED IN REMARKS
   TC - TEMPERATURE IN CELSIUS
  WCI - WIND CHILL INDEX
   HX - HEAT INDEX
  VSB - VISIBILITY





USA.gov is the U.S. government's official web portal to all federal, state and local government web resources and services.